Tracking 30994 objects as of 8-Jul-2025
HD Live streaming from Space Station
objects crossing your sky now

DELTA 1 DEB

Track DELTA 1 DEB now!
10-day predictions


NORAD ID: 7142
Int'l Code: 1973-086DG
Perigee: 1,512.5 km
Apogee: 1,582.8 km
Inclination: 101.8 °
Period: 116.9 minutes
Semi major axis: 7918 km
RCS: 0.1846 m2 (medium)
Launch date: November 6, 1973
Source: United States (US)
Launch site: AIR FORCE WESTERN TEST RANGE (AFWTR)

Note: This is SATELLITE DEBRIS
Your satellite tracking list
Your tracking list is empty




NASA's NSSDC Master Catalog

Two Line Element Set (TLE):
1 07142U 73086DG  25188.54640134 -.00000003  00000-0  32918-3 0  9999
2 07142 101.7869 169.1381 0044376 302.8903 175.1089 12.32052038323078
Source of the keplerian elements: AFSPC